| time (UTC) | temp C | wind direction | speed KPH | gust KPH | rain 1hr cm | rain 24hr cm | rain mn cm | humidity % | barometer mb |
| 20260506050905 | 10 | 159 | 0.0 | 0.0 | 0.18 | 1.55 | 0.20 | 94 | 1006.1 |
| 20260506050405 | 10 | 159 | 0.0 | 0.0 | 0.20 | 1.55 | 0.20 | 94 | 1006.2 |
| 20260506044404 | 10 | 159 | 0.0 | 0.0 | 0.20 | 1.50 | 0.15 | 94 | 1006.3 |
| 20260506043904 | 10 | 159 | 0.0 | 0.0 | 0.20 | 1.50 | 0.15 | 94 | 1006.2 |
| 20260506043405 | 10 | 159 | 0.0 | 0.0 | 0.20 | 1.47 | 0.13 | 94 | 1006.3 |
| 20260506042905 | 10 | 159 | 0.0 | 0.0 | 0.20 | 1.45 | 0.10 | 94 | 1006.3 |
| 20260506042405 | 10 | 159 | 0.0 | 0.0 | 0.18 | 1.42 | 0.08 | 94 | 1006.4 |
| 20260506041904 | 10 | 159 | 0.0 | 0.0 | 0.20 | 1.42 | 0.08 | 94 | 1006.4 |
| 20260506041404 | 10 | 159 | 0.0 | 0.0 | 0.20 | 1.40 | 0.05 | 94 | 1006.6 |
| 20260506040905 | 10 | 159 | 0.0 | 0.0 | 0.18 | 1.37 | 0.03 | 94 | 1006.7 |
| 20260506035904 | 10 | 159 | 0.0 | 0.0 | 0.23 | 1.35 | 1.35 | 94 | 1006.5 |
| 20260506035405 | 10 | 159 | 0.0 | 0.0 | 0.23 | 1.32 | 1.32 | 94 | 1006.6 |
| 20260506034905 | 10 | 159 | 0.0 | 0.0 | 0.25 | 1.32 | 1.32 | 94 | 1006.6 |
| 20260506034404 | 10 | 159 | 0.0 | 0.0 | 0.25 | 1.30 | 1.30 | 93 | 1006.7 |
| 20260506033905 | 10 | 159 | 0.0 | 0.0 | 0.28 | 1.30 | 1.30 | 93 | 1006.8 |
| 20260506033404 | 10 | 159 | 0.0 | 0.0 | 0.25 | 1.27 | 1.27 | 93 | 1007.2 |
| 20260506032904 | 10 | 159 | 0.0 | 0.0 | 0.23 | 1.24 | 1.24 | 93 | 1007.4 |
| 20260506032404 | 10 | 159 | 0.0 | 0.0 | 0.25 | 1.24 | 1.24 | 94 | 1007.4 |
| 20260506031904 | 10 | 155 | 0.0 | 0.0 | 0.23 | 1.22 | 1.22 | 93 | 1007.0 |
| 20260506031405 | 10 | 155 | 0.0 | 4.8 | 0.23 | 1.22 | 1.22 | 93 | 1007.0 |
| 20260506030405 | 10 | 83 | 0.0 | 0.0 | 0.20 | 1.17 | 1.17 | 94 | 1007.0 |
| 20260506025905 | 10 | 83 | 0.0 | 0.0 | 0.18 | 1.12 | 1.12 | 93 | 1006.7 |
| 20260506025404 | 10 | 83 | 0.0 | 0.0 | 0.15 | 1.09 | 1.09 | 93 | 1006.6 |
| 20260506024904 | 10 | 83 | 0.0 | 0.0 | 0.15 | 1.07 | 1.07 | 93 | 1006.6 |
| 20260506024404 | 10 | 83 | 0.0 | 0.0 | 0.13 | 1.04 | 1.04 | 93 | 1006.6 |
| 20260506023904 | 10 | 83 | 0.0 | 0.0 | 0.10 | 1.02 | 1.02 | 93 | 1006.6 |
| 20260506023404 | 10 | 83 | 0.0 | 0.0 | 0.10 | 1.02 | 1.02 | 93 | 1006.6 |
| 20260506020404 | 11 | 83 | 0.0 | 0.0 | 0.13 | 0.97 | 0.97 | 93 | 1006.7 |
| 20260506015904 | 11 | 83 | 0.0 | 0.0 | 0.10 | 0.94 | 0.94 | 93 | 1006.7 |
| 20260506015405 | 11 | 83 | 0.0 | 0.0 | 0.10 | 0.94 | 0.94 | 93 | 1006.7 |
| 20260506014905 | 11 | 83 | 0.0 | 0.0 | 0.08 | 0.91 | 0.91 | 93 | 1006.7 |
| 20260506014404 | 11 | 83 | 0.0 | 0.0 | 0.08 | 0.91 | 0.91 | 93 | 1006.7 |
| 20260506013904 | 11 | 83 | 0.0 | 0.0 | 0.08 | 0.91 | 0.91 | 92 | 1006.6 |
| 20260506013404 | 11 | 83 | 0.0 | 0.0 | 0.10 | 0.91 | 0.91 | 93 | 1006.4 |
| 20260506012904 | 11 | 83 | 0.0 | 0.0 | 0.13 | 0.91 | 0.91 | 92 | 1006.4 |
| 20260506012404 | 11 | 91 | 0.0 | 0.0 | 0.13 | 0.89 | 0.89 | 92 | 1006.3 |
| 20260506011905 | 11 | 138 | 0.0 | 0.0 | 0.15 | 0.86 | 0.86 | 92 | 1006.3 |
| 20260506011404 | 11 | 138 | 0.0 | 0.0 | 0.18 | 0.86 | 0.86 | 93 | 1006.3 |
| 20260506010904 | 11 | 138 | 0.0 | 0.0 | 0.18 | 0.84 | 0.84 | 92 | 1006.2 |
| 20260506010405 | 11 | 138 | 0.0 | 0.0 | 0.25 | 0.84 | 0.84 | 92 | 1006.2 |
| 20260506005904 | 12 | 138 | 0.0 | 0.0 | 0.36 | 0.84 | 0.84 | 92 | 1006.2 |
| 20260506005404 | 12 | 138 | 0.0 | 0.0 | 0.69 | 0.84 | 0.84 | 92 | 1006.2 |
| 20260506004905 | 12 | 138 | 0.0 | 0.0 | 0.69 | 0.84 | 0.84 | 92 | 1006.0 |
| 20260506004405 | 12 | 138 | 0.0 | 0.0 | 0.71 | 0.84 | 0.84 | 92 | 1006.1 |
| 20260506003905 | 12 | 138 | 0.0 | 0.0 | 0.71 | 0.84 | 0.84 | 92 | 1006.2 |
| 20260506003404 | 12 | 138 | 0.0 | 0.0 | 0.69 | 0.81 | 0.81 | 91 | 1006.2 |
| 20260506002904 | 12 | 138 | 0.0 | 0.0 | 0.66 | 0.79 | 0.79 | 91 | 1006.2 |
| 20260506002404 | 12 | 138 | 0.0 | 0.0 | 0.66 | 0.76 | 0.76 | 91 | 1006.3 |
| 20260506001904 | 12 | 138 | 0.0 | 0.0 | 0.61 | 0.71 | 0.71 | 91 | 1006.4 |
| 20260506001404 | 12 | 138 | 0.0 | 0.0 | 0.58 | 0.69 | 0.69 | 91 | 1006.4 |
| 20260506000404 | 13 | 141 | 0.0 | 0.0 | 0.48 | 0.58 | 0.58 | 88 | 1006.5 |
| 20260505235904 | 13 | 117 | 1.6 | 29.0 | 0.38 | 0.48 | 0.48 | 89 | 1006.8 |
| 20260505234905 | 14 | 267 | 0.0 | 0.0 | 0.05 | 0.15 | 0.15 | 90 | 1005.7 |
| 20260505233905 | 14 | 267 | 0.0 | 0.0 | 0.05 | 0.13 | 0.13 | 90 | 1005.2 |
| 20260505233404 | 15 | 267 | 0.0 | 0.0 | 0.05 | 0.13 | 0.13 | 89 | 1005.2 |
| 20260505232905 | 15 | 267 | 0.0 | 0.0 | 0.05 | 0.13 | 0.13 | 89 | 1005.1 |
| 20260505232404 | 15 | 267 | 0.0 | 0.0 | 0.03 | 0.10 | 0.10 | 89 | 1005.2 |
| 20260505231404 | 15 | 267 | 0.0 | 0.0 | 0.03 | 0.10 | 0.10 | 88 | 1005.2 |
| 20260505230904 | 15 | 267 | 0.0 | 0.0 | 0.03 | 0.10 | 0.10 | 88 | 1005.2 |
| 20260505230405 | 15 | 267 | 0.0 | 0.0 | 0.03 | 0.10 | 0.10 | 88 | 1005.2 |
| 20260505225405 | 15 | 267 | 0.0 | 0.0 | 0.03 | 0.10 | 0.10 | 87 | 1005.3 |
| 20260505224904 | 15 | 267 | 0.0 | 0.0 | 0.03 | 0.10 | 0.10 | 87 | 1005.3 |
| 20260505224405 | 15 | 267 | 0.0 | 0.0 | 0.03 | 0.10 | 0.10 | 87 | 1005.3 |
| 20260505223905 | 15 | 267 | 0.0 | 0.0 | 0.00 | 0.08 | 0.08 | 87 | 1005.5 |
| 20260505223405 | 15 | 267 | 0.0 | 0.0 | 0.00 | 0.08 | 0.08 | 86 | 1005.5 |
| 20260505222905 | 15 | 267 | 0.0 | 0.0 | 0.00 | 0.08 | 0.08 | 86 | 1005.6 |
| 20260505222404 | 16 | 267 | 0.0 | 0.0 | 0.00 | 0.08 | 0.08 | 85 | 1005.5 |
| 20260505221904 | 16 | 265 | 0.0 | 0.0 | 0.00 | 0.08 | 0.08 | 86 | 1005.4 |
| 20260505221404 | 16 | 256 | 0.0 | 0.0 | 0.00 | 0.08 | 0.08 | 86 | 1005.5 |
| 20260505220904 | 16 | 256 | 0.0 | 1.6 | 0.00 | 0.08 | 0.08 | 85 | 1005.6 |
| 20260505220405 | 16 | 256 | 0.0 | 1.6 | 0.00 | 0.08 | 0.08 | 86 | 1005.5 |
| 20260505215904 | 16 | 256 | 0.0 | 0.0 | 0.03 | 0.08 | 0.08 | 85 | 1005.4 |
| 20260505215405 | 16 | 256 | 0.0 | 0.0 | 0.03 | 0.08 | 0.08 | 86 | 1005.4 |
| 20260505214904 | 16 | 256 | 0.0 | 0.0 | 0.05 | 0.08 | 0.08 | 85 | 1005.2 |
| 20260505214404 | 16 | 256 | 0.0 | 0.0 | 0.05 | 0.08 | 0.08 | 85 | 1005.2 |
| 20260505213904 | 16 | 256 | 0.0 | 0.0 | 0.05 | 0.08 | 0.08 | 85 | 1005.1 |
| 20260505213404 | 16 | 256 | 0.0 | 0.0 | 0.05 | 0.08 | 0.08 | 87 | 1005.0 |
| 20260505212905 | 16 | 256 | 0.0 | 0.0 | 0.05 | 0.08 | 0.08 | 86 | 1004.9 |
| 20260505212404 | 16 | 256 | 0.0 | 0.0 | 0.05 | 0.08 | 0.08 | 85 | 1005.0 |
| 20260505211904 | 16 | 256 | 0.0 | 0.0 | 0.05 | 0.08 | 0.08 | 84 | 1005.0 |
| 20260505211404 | 16 | 256 | 0.0 | 0.0 | 0.05 | 0.08 | 0.08 | 81 | 1005.1 |
| 20260505210904 | 17 | 256 | 0.0 | 0.0 | 0.05 | 0.08 | 0.08 | 78 | 1005.2 |
| 20260505210404 | 17 | 256 | 0.0 | 0.0 | 0.05 | 0.08 | 0.08 | 76 | 1005.4 |
| 20260505205904 | 18 | 271 | 0.0 | 0.0 | 0.03 | 0.05 | 0.05 | 74 | 1005.3 |
| 20260505205404 | 18 | 270 | 1.6 | 8.0 | 0.03 | 0.05 | 0.05 | 71 | 1005.2 |
| 20260505204404 | 19 | 263 | 1.6 | 12.9 | 0.00 | 0.03 | 0.03 | 64 | 1004.6 |
| 20260505203904 | 19 | 275 | 0.0 | 19.3 | 0.00 | 0.03 | 0.03 | 64 | 1004.5 |
| 20260505203404 | 19 | 268 | 0.0 | 0.0 | 0.00 | 0.03 | 0.03 | 64 | 1004.5 |
| 20260505202904 | 19 | 237 | 0.0 | 8.0 | 0.00 | 0.03 | 0.03 | 65 | 1004.6 |
| 20260505201905 | 19 | 205 | 0.0 | 0.0 | 0.00 | 0.03 | 0.03 | 64 | 1004.6 |
| 20260505201404 | 19 | 207 | 0.0 | 12.9 | 0.00 | 0.03 | 0.03 | 64 | 1004.7 |
| 20260505200904 | 19 | 286 | 0.0 | 19.3 | 0.00 | 0.03 | 0.03 | 63 | 1004.8 |
| 20260505200404 | 19 | 257 | 1.6 | 19.3 | 0.00 | 0.03 | 0.03 | 64 | 1004.8 |
| 20260505195904 | 19 | 249 | 0.0 | 9.7 | 0.00 | 0.03 | 0.03 | 64 | 1004.8 |
| 20260505194404 | 19 | 250 | 0.0 | 8.0 | 0.00 | 0.03 | 0.03 | 64 | 1004.8 |
| 20260505193904 | 19 | 251 | 1.6 | 8.0 | 0.00 | 0.03 | 0.03 | 63 | 1005.1 |
| 20260505193404 | 19 | 243 | 0.0 | 1.6 | 0.00 | 0.03 | 0.03 | 64 | 1005.1 |
| 20260505192905 | 19 | 254 | 0.0 | 9.7 | 0.00 | 0.03 | 0.03 | 64 | 1005.2 |
| 20260505192404 | 18 | 262 | 1.6 | 8.0 | 0.00 | 0.03 | 0.03 | 64 | 1005.2 |
| 20260505191904 | 18 | 267 | 0.0 | 22.5 | 0.00 | 0.03 | 0.03 | 64 | 1005.4 |
| 20260505191404 | 18 | 234 | 1.6 | 9.7 | 0.00 | 0.03 | 0.03 | 65 | 1005.5 |
| 20260505190904 | 18 | 255 | 0.0 | 8.0 | 0.00 | 0.03 | 0.03 | 65 | 1005.6 |
| 20260505190404 | 18 | 263 | 3.2 | 12.9 | 0.00 | 0.03 | 0.03 | 65 | 1005.7 |
| 20260505185404 | 19 | 281 | 0.0 | 4.8 | 0.00 | 0.03 | 0.03 | 63 | 1005.5 |
| 20260505184904 | 19 | 275 | 0.0 | 4.8 | 0.00 | 0.03 | 0.03 | 63 | 1005.5 |
| 20260505182904 | 20 | 272 | 0.0 | 14.5 | 0.00 | 0.03 | 0.03 | 62 | 1005.2 |
| 20260505181404 | 20 | 268 | 0.0 | 22.5 | 0.00 | 0.03 | 0.03 | 61 | 1005.1 |
| 20260505180904 | 20 | 272 | 6.4 | 22.5 | 0.00 | 0.03 | 0.03 | 61 | 1005.1 |
| 20260505180404 | 20 | 281 | 1.6 | 12.9 | 0.00 | 0.03 | 0.03 | 61 | 1005.0 |
| 20260505175904 | 20 | 252 | 0.0 | 9.7 | 0.00 | 0.03 | 0.03 | 60 | 1005.1 |
| 20260505175404 | 20 | 234 | 3.2 | 19.3 | 0.00 | 0.03 | 0.03 | 59 | 1004.9 |
| 20260505174405 | 20 | 205 | 3.2 | 12.9 | 0.00 | 0.03 | 0.03 | 60 | 1004.9 |
| 20260505173904 | 20 | 261 | 9.7 | 33.8 | 0.00 | 0.03 | 0.03 | 60 | 1004.9 |
| 20260505173404 | 20 | 280 | 3.2 | 22.5 | 0.00 | 0.03 | 0.03 | 60 | 1004.8 |
| 20260505172904 | 20 | 191 | 1.6 | 8.0 | 0.00 | 0.03 | 0.03 | 62 | 1004.9 |
| 20260505172404 | 20 | 244 | 8.0 | 19.3 | 0.00 | 0.03 | 0.03 | 61 | 1004.9 |
| 20260505171904 | 20 | 269 | 3.2 | 12.9 | 0.00 | 0.03 | 0.03 | 61 | 1005.0 |
| 20260505171404 | 20 | 262 | 0.0 | 8.0 | 0.00 | 0.03 | 0.03 | 61 | 1005.0 |
| 20260505170404 | 20 | 215 | 4.8 | 40.2 | 0.00 | 0.03 | 0.03 | 60 | 1005.0 |
| 20260505165904 | 20 | 248 | 11.3 | 27.4 | 0.00 | 0.03 | 0.03 | 59 | 1005.0 |
| 20260505165405 | 20 | 264 | 8.0 | 35.4 | 0.00 | 0.03 | 0.03 | 59 | 1004.9 |
| 20260505164405 | 21 | 185 | 8.0 | 22.5 | 0.00 | 0.03 | 0.03 | 56 | 1004.8 |
| 20260505163904 | 21 | 258 | 11.3 | 35.4 | 0.00 | 0.03 | 0.03 | 56 | 1004.7 |
| 20260505163405 | 22 | 272 | 8.0 | 33.8 | 0.00 | 0.03 | 0.03 | 55 | 1004.6 |
| 20260505162904 | 22 | 206 | 4.8 | 33.8 | 0.00 | 0.03 | 0.03 | 59 | 1004.5 |
| 20260505162404 | 22 | 248 | 1.6 | 25.7 | 0.00 | 0.03 | 0.03 | 58 | 1004.5 |
| 20260505161904 | 21 | 221 | 6.4 | 33.8 | 0.00 | 0.03 | 0.03 | 58 | 1004.5 |
| 20260505161404 | 21 | 282 | 12.9 | 27.4 | 0.00 | 0.03 | 0.03 | 55 | 1004.3 |
| 20260505160404 | 21 | 261 | 14.5 | 25.7 | 0.00 | 0.03 | 0.03 | 57 | 1004.2 |
| 20260505152904 | 20 | 199 | 3.2 | 33.8 | 0.00 | 0.03 | 0.03 | 61 | 1004.7 |
| 20260505152404 | 20 | 225 | 16.1 | 35.4 | 0.00 | 0.03 | 0.03 | 59 | 1004.8 |
| 20260505151904 | 20 | 243 | 12.9 | 33.8 | 0.00 | 0.03 | 0.03 | 62 | 1004.7 |
| 20260505150904 | 19 | 242 | 16.1 | 33.8 | 0.00 | 0.03 | 0.03 | 62 | 1004.9 |
| 20260505150404 | 19 | 276 | 8.0 | 25.7 | 0.00 | 0.03 | 0.03 | 62 | 1004.8 |
| 20260505140404 | 17 | 254 | 6.4 | 25.7 | 0.00 | 0.05 | 0.03 | 73 | 1004.5 |
| 20260505124904 | 16 | 212 | 0.0 | 0.0 | 0.03 | 0.05 | 0.03 | 75 | 1004.1 |
| 20260505124404 | 16 | 217 | 0.0 | 19.3 | 0.03 | 0.05 | 0.03 | 75 | 1004.0 |
| 20260505123904 | 16 | 228 | 1.6 | 9.7 | 0.03 | 0.05 | 0.03 | 75 | 1003.7 |
| 20260505122904 | 16 | 256 | 3.2 | 12.9 | 0.03 | 0.05 | 0.03 | 73 | 1004.1 |
| 20260505122404 | 16 | 259 | 0.0 | 1.6 | 0.03 | 0.05 | 0.03 | 71 | 1004.1 |
| 20260505121904 | 17 | 208 | 0.0 | 12.9 | 0.00 | 0.03 | 0.00 | 71 | 1004.0 |
| 20260505121404 | 17 | 220 | 1.6 | 14.5 | 0.00 | 0.03 | 0.00 | 71 | 1004.2 |
| 20260505120904 | 17 | 243 | 3.2 | 14.5 | 0.00 | 0.03 | 0.00 | 68 | 1004.3 |
| 20260505115904 | 17 | 215 | 3.2 | 25.7 | 0.00 | 0.03 | 0.00 | 68 | 1003.9 |
| 20260505115404 | 17 | 207 | 0.0 | 4.8 | 0.00 | 0.03 | 0.00 | 67 | 1003.9 |
| 20260505114904 | 17 | 226 | 4.8 | 12.9 | 0.00 | 0.03 | 0.00 | 67 | 1003.9 |
| 20260505114404 | 17 | 213 | 1.6 | 9.7 | 0.00 | 0.03 | 0.00 | 67 | 1003.9 |
| 20260505113404 | 17 | 208 | 1.6 | 4.8 | 0.00 | 0.03 | 0.00 | 67 | 1003.7 |
| 20260505112904 | 17 | 248 | 8.0 | 12.9 | 0.00 | 0.03 | 0.00 | 66 | 1003.7 |
| 20260505112404 | 17 | 234 | 3.2 | 22.5 | 0.00 | 0.03 | 0.00 | 67 | 1003.6 |
| 20260505111904 | 17 | 259 | 1.6 | 22.5 | 0.00 | 0.03 | 0.00 | 67 | 1003.6 |
| 20260505111404 | 17 | 258 | 1.6 | 19.3 | 0.00 | 0.03 | 0.00 | 66 | 1003.6 |
| 20260505110904 | 17 | 243 | 1.6 | 12.9 | 0.00 | 0.03 | 0.00 | 67 | 1003.6 |
| 20260505101904 | 17 | 252 | 0.0 | 9.7 | 0.00 | 0.03 | 0.00 | 65 | 1002.8 |
| 20260505101404 | 17 | 264 | 4.8 | 20.9 | 0.00 | 0.03 | 0.00 | 65 | 1002.6 |
| 20260505100904 | 17 | 250 | 3.2 | 19.3 | 0.00 | 0.03 | 0.00 | 65 | 1002.6 |
| 20260505100403 | 17 | 215 | 3.2 | 14.5 | 0.00 | 0.03 | 0.00 | 64 | 1002.6 |
| 20260505095904 | 17 | 212 | 9.7 | 27.4 | 0.00 | 0.03 | 0.00 | 64 | 1002.6 |
| 20260505095403 | 17 | 214 | 1.6 | 20.9 | 0.00 | 0.03 | 0.00 | 65 | 1002.5 |
| 20260505094404 | 17 | 268 | 1.6 | 14.5 | 0.00 | 0.03 | 0.00 | 65 | 1002.4 |
| 20260505093904 | 17 | 224 | 11.3 | 14.5 | 0.00 | 0.03 | 0.00 | 65 | 1002.3 |
| 20260505093404 | 17 | 209 | 9.7 | 25.7 | 0.00 | 0.03 | 0.00 | 65 | 1002.3 |
| 20260505092904 | 17 | 263 | 9.7 | 25.7 | 0.00 | 0.03 | 0.00 | 66 | 1002.4 |
| 20260505092404 | 17 | 248 | 1.6 | 14.5 | 0.00 | 0.03 | 0.00 | 66 | 1002.3 |
| 20260505091904 | 17 | 202 | 8.0 | 25.7 | 0.00 | 0.03 | 0.00 | 66 | 1002.2 |
| 20260505091404 | 17 | 238 | 4.8 | 25.7 | 0.00 | 0.03 | 0.00 | 67 | 1002.2 |
| 20260505090904 | 17 | 261 | 1.6 | 8.0 | 0.00 | 0.03 | 0.00 | 68 | 1002.2 |
| 20260505085904 | 17 | 237 | 0.0 | 0.0 | 0.00 | 0.03 | 0.00 | 68 | 1002.1 |
| 20260505085404 | 17 | 247 | 1.6 | 9.7 | 0.00 | 0.03 | 0.00 | 69 | 1002.1 |
| 20260505084904 | 17 | 224 | 3.2 | 25.7 | 0.00 | 0.03 | 0.00 | 70 | 1002.1 |
| 20260505084404 | 17 | 253 | 4.8 | 20.9 | 0.00 | 0.03 | 0.00 | 70 | 1002.2 |
| 20260505083403 | 17 | 270 | 1.6 | 12.9 | 0.00 | 0.03 | 0.00 | 67 | 1002.0 |
| 20260505082904 | 18 | 249 | 8.0 | 22.5 | 0.00 | 0.03 | 0.00 | 63 | 1001.9 |
| 20260505082404 | 18 | 225 | 8.0 | 14.5 | 0.00 | 0.03 | 0.00 | 63 | 1001.9 |
| 20260505081904 | 18 | 261 | 6.4 | 22.5 | 0.00 | 0.03 | 0.00 | 63 | 1001.7 |
| 20260505081404 | 17 | 219 | 8.0 | 12.9 | 0.00 | 0.03 | 0.00 | 63 | 1001.8 |
| 20260505080904 | 17 | 220 | 0.0 | 12.9 | 0.00 | 0.03 | 0.00 | 64 | 1001.6 |
| 20260505080404 | 17 | 272 | 4.8 | 14.5 | 0.00 | 0.03 | 0.00 | 64 | 1001.5 |
| 20260505075904 | 17 | 234 | 3.2 | 14.5 | 0.00 | 0.03 | 0.00 | 64 | 1001.5 |
| 20260505075404 | 17 | 228 | 3.2 | 22.5 | 0.00 | 0.03 | 0.00 | 64 | 1001.4 |
| 20260505074904 | 17 | 261 | 3.2 | 12.9 | 0.00 | 0.03 | 0.00 | 64 | 1001.4 |
| 20260505074404 | 17 | 208 | 0.0 | 8.0 | 0.00 | 0.03 | 0.00 | 65 | 1001.4 |
| 20260505073904 | 17 | 177 | 0.0 | 1.6 | 0.00 | 0.03 | 0.00 | 65 | 1001.4 |
| 20260505073404 | 17 | 282 | 1.6 | 12.9 | 0.00 | 0.03 | 0.00 | 64 | 1001.3 |
| 20260505072903 | 17 | 239 | 1.6 | 14.5 | 0.00 | 0.03 | 0.00 | 64 | 1001.4 |
| 20260505072404 | 17 | 219 | 1.6 | 14.5 | 0.00 | 0.03 | 0.00 | 65 | 1001.4 |
| 20260505071904 | 17 | 267 | 0.0 | 9.7 | 0.00 | 0.03 | 0.00 | 65 | 1001.5 |
| 20260505071404 | 17 | 225 | 1.6 | 19.3 | 0.00 | 0.03 | 0.00 | 65 | 1001.4 |
| 20260505070904 | 17 | 214 | 0.0 | 1.6 | 0.00 | 0.03 | 0.00 | 65 | 1001.4 |
| 20260505070404 | 17 | 212 | 3.2 | 12.9 | 0.00 | 0.03 | 0.00 | 65 | 1001.4 |
| 20260505065904 | 17 | 260 | 1.6 | 14.5 | 0.00 | 0.03 | 0.00 | 65 | 1001.4 |
| 20260505065404 | 17 | 251 | 1.6 | 9.7 | 0.00 | 0.03 | 0.00 | 66 | 1001.4 |
| 20260505064903 | 17 | 230 | 0.0 | 9.7 | 0.00 | 0.03 | 0.00 | 65 | 1001.5 |
| 20260505064404 | 17 | 230 | 1.6 | 9.7 | 0.00 | 0.03 | 0.00 | 65 | 1001.5 |
| 20260505063904 | 17 | 257 | 0.0 | 12.9 | 0.00 | 0.03 | 0.00 | 65 | 1001.6 |
| 20260505063403 | 17 | 226 | 1.6 | 9.7 | 0.00 | 0.03 | 0.00 | 65 | 1001.6 |
| 20260505062904 | 17 | 251 | 0.0 | 9.7 | 0.00 | 0.03 | 0.00 | 65 | 1001.6 |
| 20260505062404 | 17 | 276 | 0.0 | 1.6 | 0.00 | 0.03 | 0.00 | 65 | 1001.7 |
| 20260505061904 | 17 | 269 | 1.6 | 9.7 | 0.00 | 0.03 | 0.00 | 65 | 1001.8 |
| 20260505061404 | 17 | 249 | 0.0 | 12.9 | 0.00 | 0.03 | 0.00 | 65 | 1001.8 |
| 20260505060904 | 17 | 267 | 0.0 | 8.0 | 0.00 | 0.03 | 0.00 | 64 | 1001.9 |